User: anonymous
Location: Unspecified
(0.0000°N, 0.0000°E)
Time: 17:30:33
(UTC+00:00)
Language:

Aussat K2 - Orbit

View from above orbital plane
View from above orbital plane
View from above satellite
View from above satellite

Ground track
Ground track

The orbit data is extracted from the following two-line orbital elements,

1 16275U 85109C   14242.86415970 -.00000344  00000-0  00000+0 0  5051
2 16275 014.6896 019.6866 0006040 162.9111 245.0685 00.99952363 95026
Epoch (UTC): 30 August 2014 20:44:23
Eccentricity: 0.0006040
inclination: 14.6896°
perigee height: 35850 km
apogee height: 35901 km
right ascension of ascending node: 19.6866°
argument of perigee: 162.9111°
revolutions per day: 0.99952363
mean anomaly at epoch: 245.0685°
orbit number at epoch: 9502

The dashed part of the orbit path shows where the satellite is in the earth's shadow,  

DLR